Location: Hilton Head Island
(32.2163°N, 80.7526°W)
Time: 23:51:29
(UTC-05:00)

Vanguard 1 - Pass Details

Date: 25 February 2026
Orbit: 653 x 3818 km, 34.2° (Epoch: 5 March)

Event Time Altitude Azimuth Distance (km) Brightness Sun altitude
Rises 21:36:16 0° 282° (WNW) 6,607 15.1 -42.3°
Reaches altitude 10° 21:41:07 10° 272° (W) 5,989 14.6 -43.3°
Maximum altitude 21:56:45 29° 221° (SW) 5,313 13.7 -46.3°
Enters shadow 22:09:46 18° 181° (S) 6,214 13.9 -48.8°
Drops below altitude 10° 22:14:44 10° 170° (S) 6,767 - -49.8°
Sets 22:20:58 0° 160° (SSE) 7,547 - -50.9°
